ガン彗星

65P/Gunn (2025)

English version
Home page
Updated on July 18, 2024

---------------------------------------------------------------------

・ プロフィール

・ 写真集

・ 軌道要素

Epoch 2024 Mar. 31.0 TT = JDT 2460400.5
T 2025 June 16.84870 TT                                 Rudenko
q   2.9254960            (2000.0)            P               Q
n   0.12841401     Peri.  213.76346     +0.09373715     +0.98559478
a   3.8909990      Node    61.97659     -0.87456252     +0.14908180
e   0.2481376      Incl.    9.17596     -0.47576649     -0.07985959
P   7.68
>From 2378 observations 2013 Jan. 1-2024 Mar. 18, mean residual 0".6.
     Nongravitational parameters A1 = -0.14, A2 = -0.0211.

・ 星図

・ 光度変化

        m1 = 9.0 + 5 logΔ + 10.0 log r

---------------------------------------------------------------------

軌道要素はM.P.E.C. 2024-F34に掲載されたものです。
星図はステラナビゲータ Ver.10 (アストロアーツ) で作成したものです。
光度グラフはComet for Windowsで作成したものです。

---------------------------------------------------------------------

Copyright(C) Seiichi Yoshida (comet@aerith.net). All rights reserved.